Weather in Shimanovsk

Russia / Amur Oblast     51°59′58″N   127°40′34″E
temp.,
°C
wind,
m/s
gust,
m/s
humid.,
%
clouds,
%
prec.,
mm/h
press.,
hPa
HPBL,
m
8 march, mon
mon800:00−18sw22940 0.0 102520
03:00−18ssw23960 0.0 102449
06:00−18s369624 0.0 1023120
09:00−14s5109437 0.0 1021286
12:00−7ssw6118872 0.0 1017606
15:00−2ssw6118187 0.0 1012905
18:00−3ssw51286100 0.0 1008847
21:00−4sw61295100 1.3 1006627
9 march, tue
tue900:00−2w41094100 1.1 1004803
03:00−8wnw369496 1.1 1003149
06:00−11nnw5129287 0.0 1005412
09:00−12nnw7138260 0.0 1010611
12:00−5nnw814750 0.0 10131023
15:00−3nw814740 0.0 10151110
18:00−6nw613740 0.0 1018959
21:00−9nw413780 0.0 1022371
10 march, wed
wed1000:00−13wnw33870 0.0 102246
03:00−13wsw238819 0.0 102228
06:00−11ssw3782100 0.0 1020154
09:00−8ssw51078100 0.0 1018425
12:00−5sw5973100 0.0 1015697
15:00−2wsw3682100 0.0 1013831
18:00−3wnw2591100 0.1 1014206
21:00−6nw4118980 0.1 1018351
11 march, thu
thu1100:00−9nw411850 0.0 1021302
03:00−11nw512750 0.0 1024294
06:00−14nw410770 0.0 1027211
09:00−11nw37760 0.0 1028234
12:00−5wnw24740 0.0 1028420
15:00−4sw47722 0.0 1025743
18:00−5ssw378528 0.0 1024174
21:00−8ssw239025 0.0 102566
12 march, fri
fri1200:00−9nw249220 0.0 102665
03:00−11nnw239610 0.0 102624
06:00−12w119467 0.0 102721
09:00−7s359275 0.0 1025216
12:00−2ssw6109311 0.0 1023490
15:000sw5109824 0.0 1019461
18:000ssw411877 0.0 1018342
21:000sw5138037 0.0 1018338